Flag for Spain Weather past 2 weeks in Sevilla, Spain

Now
72 °F

Sunny.


Feels Like: 76 °F
Forecast: 59 / 94 °F
Wind: No wind

Location: Sevilla / San Pablo

Current Time: Aug 23, 2014 at 10:18:43 AM

Latest Report: Aug 23, 2014 at 9:30 AM


Visibility: 10 mi

Pressure: 30.01 "Hg

Humidity: 61%

Dew point: 57 °F

Location of SevillaLocation

Historic Weather in Sevilla — Graph

°F

Sevilla temperature yesterday

Maximum temperature yesterday: 90 °F (at 5:00 PM)
Minimum temperature yesterday: 64 °F (at 7:00 AM)
Average temperature yesterday: 76 °F

Past Weeks' High & Low Weather Summary

 TemperatureHumidityPressure
High99 °F (Aug 16, 7:30 PM)94% (Aug 19, 6:30 AM)30.07 "Hg (Aug 19, 6:30 AM)
Low63 °F (Aug 15, 7:00 AM)10% (Aug 13, 7:00 PM)29.80 "Hg (Aug 8, 6:00 PM)
Average80 °F48%29.94 "Hg
* Reported Aug 8 9:00 AM — Aug 23 9:00 AM, Sevilla, Weather by CustomWeather, © 2014

Note: Actual official high and low records may vary slightly from our data, if they occured in-between our weather recording intervals... More about our weather records

Advertising

Sevilla weather history for previous 24 hours

 ConditionsComfort  
Time TempWeatherWind HumidityBarometerVisibility
9:00 AM
Aug 23
68 °FSunny.No wind69%30.01 "Hg10 mi
8:30 AM64 °FClear.No wind78%30.01 "Hg10 mi
8:00 AM63 °FClear.No wind77%30.01 "Hg10 mi
7:30 AM63 °FClear.2 mph77%30.01 "Hg10 mi
7:00 AM64 °FClear.1 mph78%29.98 "Hg10 mi
6:30 AM66 °FClear.1 mph73%29.98 "Hg10 mi
6:00 AM66 °FClear.No wind73%29.98 "Hg10 mi
5:30 AM64 °FClear.2 mph73%29.98 "Hg10 mi
5:00 AM66 °FClear.5 mph68%29.98 "Hg10 mi
4:30 AM68 °FClear.2 mph69%29.98 "Hg10 mi
4:00 AM68 °FPassing clouds.5 mph69%29.98 "HgN/A
3:30 AM68 °FClear.5 mph69%29.98 "Hg10 mi
1:30 AM70 °FClear.No wind64%30.01 "Hg10 mi
1:00 AM72 °FPassing clouds.5 mph61%30.01 "HgN/A
12:30 AM72 °FPassing clouds.6 mph61%29.98 "HgN/A
12:00 AM72 °FPassing clouds.9 mph61%29.98 "HgN/A
11:30 PM
Aug 22
73 °FPassing clouds.6 mph53%29.98 "HgN/A
11:00 PM73 °FPassing clouds.6 mph53%29.98 "HgN/A
10:30 PM73 °FClear.8 mph53%29.95 "Hg10 mi
10:00 PM75 °FPassing clouds.10 mph50%29.95 "HgN/A
9:30 PM77 °FPassing clouds.13 mph47%29.95 "HgN/A
9:00 PM79 °FPassing clouds.12 mph45%29.92 "HgN/A
8:30 PM81 °FPassing clouds.15 mph39%29.92 "HgN/A
8:00 PM84 °FPassing clouds.15 mph33%29.92 "HgN/A
7:30 PM86 °FPassing clouds.12 mph33%29.92 "HgN/A
7:00 PM88 °FPassing clouds.14 mph31%29.92 "HgN/A
6:30 PM90 °FPassing clouds.10 mph27%29.92 "HgN/A
6:00 PM90 °FPassing clouds.9 mph24%29.92 "HgN/A
5:30 PM90 °FPassing clouds.8 mph24%29.92 "HgN/A
5:00 PM90 °FPassing clouds.8 mph26%29.95 "HgN/A
4:30 PM88 °FPassing clouds.8 mph29%29.95 "HgN/A
4:00 PM86 °FPassing clouds.6 mph31%29.95 "HgN/A
3:30 PM86 °FSunny.8 mph31%29.98 "Hg10 mi
3:00 PM86 °FSunny.5 mph33%29.98 "Hg10 mi
2:30 PM86 °FSunny.6 mph31%30.01 "Hg10 mi
2:00 PM84 °FPassing clouds.7 mph31%30.01 "HgN/A
1:30 PM82 °FPassing clouds.7 mph37%30.01 "HgN/A
1:00 PM81 °FSunny.3 mph39%30.01 "Hg10 mi
12:30 PM79 °FSunny.1 mph45%30.01 "Hg10 mi
12:00 PM77 °FSunny.1 mph51%30.01 "Hg10 mi
11:30 AM77 °FSunny.No wind54%30.01 "Hg10 mi
11:00 AM75 °FSunny.No wind61%30.01 "Hg10 mi
10:30 AM73 °FSunny.No wind65%30.01 "Hg10 mi
10:00 AM70 °FSunny.No wind73%30.01 "Hg10 mi
Weather by CustomWeather, © 2014

See weather overviewHow to use our weather pages